{"data":{"norad_id":55818,"intl_designator":"2023-029Y","name":"ONEWEB-0657","alt_names":[],"object_type":"PAYLOAD","status":"ACTIVE","operator":null,"country":"UK","launch_date":"2023-03-09","launch_site_code":"AFETR","launch_vehicle":null,"mission":null,"orbit_class":"UNKNOWN","rcs_meters":null,"size_class":null,"mass_kg":null,"dimensions":null,"purposes":["comms"],"wikipedia_slug":null,"has_3d_model":false,"image_url":null,"decayed_at":null,"tle_current":{"epoch":"2026-09-20T01:42:51.996096Z","epoch_age_seconds":55274,"freshness":"FRESH","line1":"1 55818U 23029Y   26263.07143514 -.00000118  00000+0 -32697-3 0  9998","line2":"2 55818  87.9104 286.0678 0002354 122.0342 238.1019 13.19726120171424","mean_motion":13.1972612,"eccentricity":0.0002354,"inclination_deg":87.9104,"raan_deg":286.0678,"arg_perigee_deg":122.0342,"mean_anomaly_deg":238.1019,"bstar":-0.00032697,"rev_number":17142,"period_min":109.11354849899,"perigee_km":1183.9857297049,"apogee_km":1187.5468153656,"semimajor_km":7563.9032725353,"source":"CELESTRAK","updated_at":"2026-09-20T09:00:44.763522Z"}}}